Location: Friaudour
(46.0460°N, 1.2873°E)
Time: 03:45:42
(UTC+00:00)

Gbstr 26 Del rocket - Pass Details

Date: 14 July 2020
Orbit: 492 x 1264 km, 51.8° (Epoch: 06 August)

Event Time Altitude Azimuth Distance (km) Brightness Sun altitude
Rises 03:23:40 0° 295° (WNW) 2,759 6.2 -8.2°
Reaches altitude 10° 03:25:49 10° 288° (WNW) 1,938 5.3 -8.0°
Maximum altitude 03:29:58 42° 217° (SW) 967 3.6 -7.4°
Drops below altitude 10° 03:34:58 10° 148° (SSE) 2,340 5.9 -6.8°
Sets 03:37:48 0° 142° (SE) 3,409 6.8 -6.4°
